Weather History for KHIE - March, 2013

Change the Weather History Date:

Sunday, March 3, 2013

  Actual Average Record
Temperature  
Mean Temperature 27 °F -  
Max Temperature 30 °F 31 °F 57 °F (2002)
Min Temperature 24 °F 7 °F -13 °F (2011)
Degree Days  
Heating Degree Days 38    
Moisture  
Dew Point 23 °F    
Average Humidity 84    
Maximum Humidity 93    
Minimum Humidity 75    
Precipitation  
Precipitation 0.01 in - - ()
Sea Level Pressure  
Sea Level Pressure 29.64 in    
Wind  
Wind Speed 1 mph (WNW)    
Max Wind Speed 8 mph    
Max Gust Speed -    
Visibility 9 miles    
Events Snow    
Averages and records for this station are not official NWS values.
T = Trace of Precipitation, MM = Missing Value Source: NWS Daily Summary

Daily Weather History Graph

Daily Weather History Graph

Search for Another Location

Airport or City:

Trip Planner

Search our weather history database for the weather conditions in past years. The results will help you decide how hot, cold, wet, or windy it might be!

Date:

Astronomy

Mar. 03, 2013 Rise Set
Actual Time 6:19 AM EST 5:37 PM EST
Civil Twilight 5:50 AM EST 6:06 PM EST
Nautical Twilight 5:16 AM EST 6:39 PM EST
Astronomical Twilight 4:43 AM EST 7:13 PM EST
Moon No Moon Rise 9:17 AM EST (3/3)
Length of Visible Light 12h 15m
Length of Day
11h 17m
Waning Gibbous, 64% of the Moon is Illuminated
Mar 3
Waning Gibbous
Mar 4
Last Quarter
Mar 11
New
Mar 19
First Quarter
Mar 27
Full

Hourly Weather History & Observations

Time (EST) Temp. Windchill Dew Point Humidity Pressure Visibility Wind Dir Wind Speed Gust Speed Precip Events Conditions
12:11 AM 26.6 °F - 23.0 °F 86% 29.66 in 5.0 mi Calm Calm - 0.00 in Snow Light Snow
1:52 AM 25.0 °F - 21.9 °F 88% 29.69 in 9.0 mi Calm Calm - 0.00 in Snow Light Snow
2:52 AM 25.0 °F - 21.9 °F 88% 29.68 in 9.0 mi Calm Calm - 0.00 in Snow Light Snow
3:52 AM 25.0 °F - 21.9 °F 88% 29.68 in 10.0 mi Calm Calm - 0.00 in   Overcast
4:49 AM 24.8 °F - 23.0 °F 93% 29.63 in 6.0 mi Calm Calm - 0.00 in Snow Light Snow
4:52 AM 25.0 °F - 23.0 °F 92% 29.68 in 7.0 mi Calm Calm - 0.00 in Snow Light Snow
5:04 AM 24.8 °F - 23.0 °F 93% 29.63 in 10.0 mi Calm Calm - 0.00 in   Overcast
5:22 AM 24.8 °F - 23.0 °F 93% 29.63 in 5.0 mi Calm Calm - 0.00 in   Overcast
5:52 AM 25.0 °F - 21.9 °F 88% 29.68 in 8.0 mi Calm Calm - 0.00 in   Overcast
6:52 AM 25.0 °F - 21.9 °F 88% 29.68 in 10.0 mi Calm Calm - N/A   Overcast
7:52 AM 26.1 °F - 21.9 °F 84% 29.69 in 10.0 mi Calm Calm - N/A   Overcast
8:52 AM 26.1 °F - 23.0 °F 88% 29.68 in 10.0 mi Calm Calm - N/A   Overcast
9:36 AM 26.6 °F - 23.0 °F 86% 29.62 in 8.0 mi Calm Calm - N/A   Overcast
9:52 AM 27.0 °F - 23.0 °F 85% 29.67 in 10.0 mi Calm Calm - N/A   Overcast
10:10 AM 28.4 °F - 23.0 °F 80% 29.62 in 9.0 mi Calm Calm - 0.00 in Snow Light Snow
10:52 AM 28.0 °F - 23.0 °F 81% 29.66 in 7.0 mi Calm Calm - 0.00 in Snow Light Snow
11:52 AM 28.9 °F - 23.0 °F 78% 29.65 in 8.0 mi Calm Calm - 0.00 in Snow Light Snow
12:52 PM 30.0 °F 25.2 °F 23.0 °F 75% 29.63 in 10.0 mi West 4.6 mph - 0.01 in   Overcast
1:25 PM 30.2 °F - 23.0 °F 75% 29.57 in 10.0 mi Calm Calm - N/A   Overcast
1:52 PM 30.0 °F 26.5 °F 23.0 °F 75% 29.62 in 10.0 mi West 3.5 mph - N/A   Overcast
2:52 PM 30.9 °F - 24.1 °F 76% 29.62 in 10.0 mi Calm Calm - N/A   Overcast
3:03 PM 30.2 °F 26.7 °F 24.8 °F 80% 29.57 in 10.0 mi SSW 3.5 mph - N/A   Overcast
3:52 PM 30.0 °F 23.2 °F 24.1 °F 79% 29.62 in 10.0 mi WNW 6.9 mph - N/A   Overcast
4:11 PM 30.2 °F 22.6 °F 24.8 °F 80% 29.58 in 10.0 mi WNW 8.1 mph - N/A   Overcast
4:52 PM 30.0 °F 24.1 °F 24.1 °F 79% 29.63 in 10.0 mi NW 5.8 mph - N/A   Overcast
5:52 PM 28.9 °F 22.8 °F 24.1 °F 82% 29.64 in 10.0 mi NW 5.8 mph - N/A   Overcast
6:29 PM 28.4 °F - 24.8 °F 86% 29.61 in 6.0 mi Calm Calm - N/A   Overcast
6:36 PM 28.4 °F 24.6 °F 24.8 °F 86% 29.60 in 5.0 mi West 3.5 mph - N/A   Overcast
6:52 PM 28.0 °F 22.8 °F 25.0 °F 88% 29.65 in 6.0 mi WNW 4.6 mph - N/A   Overcast
6:59 PM 28.4 °F 22.2 °F 24.8 °F 86% 29.61 in 6.0 mi West 5.8 mph - N/A   Overcast
7:52 PM 27.0 °F 19.5 °F 23.0 °F 85% 29.66 in 10.0 mi NW 6.9 mph - N/A   Overcast
8:40 PM 26.6 °F 21.2 °F 23.0 °F 86% 29.61 in 7.0 mi NW 4.6 mph - N/A   Overcast
8:52 PM 26.1 °F 20.5 °F 23.0 °F 88% 29.66 in 9.0 mi NNW 4.6 mph - N/A   Overcast
9:11 PM 26.6 °F 20.0 °F 21.2 °F 80% 29.61 in 10.0 mi WNW 5.8 mph - N/A   Overcast
9:52 PM 26.1 °F 20.5 °F 21.0 °F 81% 29.65 in 10.0 mi WNW 4.6 mph - N/A   Overcast
10:52 PM 25.0 °F 18.1 °F 19.9 °F 81% 29.64 in 10.0 mi NW 5.8 mph - N/A   Overcast
11:52 PM 25.0 °F 20.7 °F 21.0 °F 85% 29.64 in 10.0 mi WSW 3.5 mph - N/A   Overcast